Retour au catalogue

STARLINK-5640

ActifCommunicationsVLEO
NORAD 55436·PAYLOAD·🇺🇸 United States

Lancé Jan 31, 2023 depuis Vandenberg Space Force Base

Loading…

Prochains Passages (prochaines 24 heures)

TLE

FraisSource: CelesTrak SupGP

Époque: Sep 14, 2026, 21:27 UTC

1 55436C 23014AX  26257.89423611 -.00048739  00000+0 -40848-2 0  2574
2 55436  70.0015 347.4520 0003307 270.3505 266.0835 14.98352743    15

Suivez STARLINK-5640 en temps réel avec AllMySat

Download on the App Store